Vorticity
5 8 5 6 8 6 12 9 9 8 7 5 5 8 8 16 14 10 9 9 7 7 8 9 10 11 6 11 8 4 11 10 10 6 7 8 8 8 8 5 6 11 8 5
4 7 9 12 11 14 14 5 1 1 5 4 6 9 7 8 14 12 12 15 13 16 17 19 16 14 11 10 9 8 5 6 8 9 9 9 16 10 27 29 28 4 7 10
11 15 9 9 13 8 5 5 7 9 4 6 6 7 9 16 20 22 35 31 31 33 30 27 14 23 20 17 15 11 18 11 7 8 10 -2 20 28 3 -15 -11 7 17 9
12 10 13 10 7 8 9 8 8 9 11 10 13 21 34 34 40 35 34 32 31 31 29 29 30 28 25 22 19 30 6 43 17 17 17 7 2 -7 13 13 10 3 4 8
13 12 8 10 6 7 11 12 9 9 14 24 41 49 46 37 32 22 15 13 17 4 14 20 30 31 28 43 34 39 29 35 39 44 15 25 17 6 7 -6 2 24 10 7
9 7 7 7 9 11 8 13 18 35 39 45 33 35 11 12 3 2 10 14 10 12 10 6 11 14 10 16 24 21 16 8 10 49 43 53 59 15 -2 10 39 14 10 16
8 6 8 9 9 11 18 34 55 42 25 15 18 9 10 8 11 20 25 19 18 12 8 14 8 19 7 17 13 19 27 22 13 16 4 7 44 55 32 43 -16 7 14 17
5 9 9 10 15 26 42 49 28 22 1 8 8 14 16 28 31 17 13 23 8 22 21 9 17 14 14 15 35 7 -7 6 13 3 -4 0 38 27 32 45 59 31 -34 -12
8 8 11 20 33 41 34 32 22 2 6 20 28 20 19 19 21 6 4 9 9 16 17 14 13 7 14 44 6 21 -12 24 -4 -3 12 14 -21 20 28 27 62 45 15 36
6 11 22 38 38 27 32 18 26 16 25 21 18 23 22 19 21 12 20 27 18 13 10 11 11 13 14 10 -1 10 13 12 10 16 11 5 17 19 35 17 21 61 46 -5
9 21 34 38 28 29 32 20 33 8 19 21 5 11 13 2 11 18 14 16 7 17 10 9 12 11 15 7 8 19 9 10 12 7 20 9 11 11 7 37 10 49 57 38
19 30 43 30 25 27 19 21 13 16 12 12 8 9 12 14 8 8 11 13 8 12 13 3 6 7 16 5 10 13 16 14 16 10 9 27 22 -17 36 22 56 19 25 31
31 40 38 21 17 27 15 14 13 9 6 12 13 6 9 10 15 -4 40 18 18 3 5 7 11 3 9 9 17 32 19 13 19 12 24 21 27 48 42 60 11 12 8 18
33 44 25 20 24 22 15 23 18 10 20 16 9 12 14 7 25 25 21 34 13 12 11 8 7 10 5 22 7 19 26 10 30 16 29 5 35 23 86 -9 28 -8 16 14
30 44 13 22 21 20 18 18 11 11 10 15 6 17 5 22 25 9 10 12 13 16 10 18 10 14 18 3 14 36 44 17 37 24 27 31 33 -28 23 27 31 45 42 26
38 32 14 15 10 26 20 14 12 10 18 12 4 4 12 16 9 22 14 7 7 5 13 18 26 16 1 5 17 8 14 12 11 15 44 -4 1 6 5 5 2 6 23 -6
44 20 11 9 5 11 24 25 14 13 12 7 1 10 14 12 20 20 11 10 11 18 20 7 16 9 15 22 10 3 6 2 5 6 2 7 8 16 12 -3 1 8 -4 36
46 17 11 6 4 6 9 14 26 17 13 8 2 6 15 7 9 16 28 18 16 8 4 9 23 3 17 18 4 7 10 14 6 10 15 23 18 14 14 9 2 1 2 3
46 18 8 3 2 7 9 15 11 17 18 16 4 6 11 5 1 4 6 13 6 3 2 7 15 -15 20 7 8 9 13 14 17 18 15 14 8 5 13 12 16 17 30 1
32 28 6 3 4 -0 1 10 22 13 18 17 12 6 8 14 6 2 1 11 9 3 -3 11 -1 31 16 5 6 7 10 12 9 8 10 15 14 10 11 7 4 6 7 5
37 24 8 5 2 0 6 10 16 24 14 28 13 9 4 4 7 3 4 14 16 16 20 14 4 31 4 3 3 6 8 7 7 10 10 9 10 11 11 12 13 12 11 9
29 35 20 5 3 8 8 14 15 13 19 13 18 24 10 6 3 4 6 5 5 11 7 9 5 21 23 14 2 5 6 7 10 10 8 8 6 7 8 7 8 9 9 11
27 32 24 21 14 9 14 10 11 8 18 19 15 18 22 15 10 6 4 7 5 9 6 6 10 4 -2 34 6 2 3 5 7 6 6 7 7 5 4 5 7 7 7 7
26 27 21 17 12 12 11 10 12 11 13 12 15 17 19 24 17 10 6 5 7 11 7 8 8 4 2 9 11 13 10 7 5 6 4 4 4 3 5 6 7 8 7 5
25 26 22 21 17 16 15 14 9 10 12 10 12 16 19 21 21 19 15 11 9 9 11 10 8 11 11 9 7 5 5 7 8 8 9 10 9 7 6 6 5 4 3 3
22 22 24 19 17 16 16 13 12 12 12 11 10 12 12 15 19 20 16 11 8 6 4 3 3 6 8 8 7 7 8 7 3 3 3 4 4 4 5 5 5 6 6 7
19 18 18 18 18 21 19 18 17 17 15 16 16 15 13 15 17 16 17 18 14 13 10 8 7 6 6 5 4 3 1 1 2 3 5 6 6 5 3 3 4 4 3 2
Height
5680 5671 5661 5651 5643 5633 5623 5615 5607 5600 5593 5587 5578 5569 5562 5555 5547 5544 5540 5537 5532 5530 5529 5531 5530 5529 5523 5517 5524 5522 5521 5522 5528 5538 5548 5548 5550 5554 5555 5554 5564 5564 5568 5579
5666 5656 5646 5636 5627 5618 5610 5600 5590 5583 5573 5562 5553 5543 5534 5529 5522 5517 5514 5511 5505 5503 5503 5499 5503 5499 5498 5498 5497 5498 5500 5498 5499 5513 5525 5527 5528 5535 5541 5540 5543 5544 5552 5569
5654 5644 5633 5622 5612 5601 5591 5580 5569 5560 5548 5538 5528 5519 5507 5500 5494 5489 5485 5482 5476 5474 5472 5469 5470 5472 5471 5472 5471 5473 5471 5475 5476 5481 5494 5500 5499 5504 5512 5516 5520 5527 5533 5554
5642 5630 5617 5606 5595 5584 5573 5560 5547 5535 5523 5513 5500 5490 5480 5475 5469 5461 5460 5459 5454 5451 5448 5449 5449 5449 5449 5450 5449 5447 5447 5447 5452 5456 5461 5473 5478 5484 5490 5491 5501 5500 5526 5526
5628 5616 5602 5589 5578 5565 5550 5538 5522 5507 5497 5486 5478 5466 5460 5455 5452 5448 5446 5442 5441 5439 5437 5437 5435 5435 5436 5437 5436 5434 5435 5430 5433 5432 5439 5442 5448 5460 5468 5476 5484 5487 5502 5508
5615 5602 5589 5575 5559 5542 5525 5506 5493 5478 5471 5464 5458 5454 5449 5446 5443 5442 5437 5434 5431 5431 5430 5428 5428 5427 5428 5427 5424 5424 5424 5423 5423 5417 5428 5424 5420 5437 5448 5455 5462 5470 5473 5498
5602 5588 5572 5556 5538 5519 5500 5485 5470 5461 5458 5454 5449 5445 5441 5437 5434 5429 5429 5426 5424 5425 5422 5422 5421 5420 5419 5418 5418 5417 5417 5418 5418 5414 5415 5409 5416 5421 5427 5428 5445 5452 5459 5476
5587 5571 5553 5534 5516 5498 5481 5468 5460 5454 5450 5446 5442 5436 5432 5428 5425 5424 5422 5421 5419 5418 5418 5417 5416 5416 5415 5414 5412 5414 5414 5414 5412 5409 5405 5403 5409 5409 5405 5403 5411 5436 5445 5454
5572 5553 5534 5514 5495 5478 5468 5460 5454 5447 5442 5442 5431 5428 5426 5423 5422 5422 5419 5418 5417 5416 5415 5414 5413 5413 5412 5411 5410 5411 5409 5407 5405 5404 5399 5394 5397 5392 5390 5388 5380 5408 5424 5440
5556 5536 5515 5495 5480 5469 5461 5452 5447 5442 5437 5431 5428 5426 5423 5421 5420 5419 5417 5415 5414 5413 5413 5412 5411 5411 5409 5408 5406 5404 5404 5403 5401 5398 5393 5390 5386 5384 5381 5377 5382 5386 5403 5424
5539 5518 5498 5482 5471 5462 5454 5448 5443 5438 5433 5430 5427 5425 5423 5421 5418 5416 5416 5415 5414 5413 5412 5411 5410 5408 5407 5407 5403 5400 5399 5397 5394 5390 5386 5383 5379 5378 5374 5374 5376 5378 5385 5406
5522 5502 5487 5475 5465 5457 5450 5445 5440 5435 5432 5431 5427 5425 5422 5419 5416 5415 5414 5413 5411 5411 5410 5410 5408 5407 5405 5403 5400 5399 5395 5391 5387 5383 5380 5376 5372 5370 5370 5368 5371 5379 5386 5402
5508 5492 5479 5469 5461 5455 5449 5444 5439 5436 5431 5431 5428 5424 5421 5418 5415 5411 5408 5409 5408 5408 5408 5408 5407 5405 5403 5400 5397 5394 5389 5386 5383 5381 5378 5373 5371 5366 5366 5370 5374 5383 5391 5404
5498 5485 5475 5466 5459 5452 5447 5442 5438 5435 5432 5430 5428 5424 5421 5417 5413 5408 5406 5407 5407 5406 5406 5406 5405 5403 5400 5398 5394 5389 5387 5385 5381 5380 5377 5374 5373 5368 5365 5373 5382 5390 5398 5408
5491 5481 5473 5465 5458 5452 5446 5442 5438 5435 5434 5430 5428 5425 5421 5417 5413 5410 5409 5409 5409 5408 5407 5407 5404 5402 5401 5397 5394 5393 5387 5384 5382 5379 5378 5376 5377 5378 5383 5386 5389 5394 5405 5414
5487 5478 5473 5466 5459 5452 5446 5442 5439 5436 5433 5431 5428 5426 5423 5419 5415 5413 5412 5411 5410 5409 5407 5406 5404 5403 5402 5401 5396 5391 5389 5386 5382 5380 5383 5383 5383 5385 5391 5393 5396 5402 5409 5416
5483 5476 5471 5465 5459 5454 5448 5444 5440 5436 5433 5432 5429 5427 5425 5422 5418 5416 5414 5413 5411 5410 5408 5408 5406 5405 5405 5403 5399 5395 5393 5392 5390 5389 5387 5390 5390 5391 5394 5398 5404 5409 5415 5420
5480 5474 5469 5464 5459 5453 5448 5444 5440 5437 5434 5432 5430 5429 5426 5424 5421 5419 5416 5414 5413 5411 5411 5409 5409 5410 5409 5406 5402 5401 5400 5399 5399 5398 5397 5397 5397 5400 5402 5405 5408 5413 5417 5420
5478 5473 5469 5465 5461 5456 5451 5445 5440 5437 5437 5432 5431 5430 5428 5426 5423 5420 5419 5418 5417 5416 5415 5416 5416 5415 5413 5408 5407 5407 5406 5406 5404 5404 5404 5405 5405 5406 5407 5408 5410 5414 5415 5420
5475 5471 5468 5465 5461 5457 5454 5449 5444 5439 5435 5432 5430 5429 5428 5428 5426 5424 5423 5421 5421 5420 5420 5419 5418 5417 5414 5413 5413 5412 5412 5411 5410 5409 5409 5410 5410 5410 5410 5411 5413 5415 5417 5420
5474 5469 5466 5463 5460 5456 5452 5448 5444 5439 5436 5433 5430 5429 5428 5427 5426 5425 5424 5424 5422 5422 5422 5420 5420 5419 5418 5416 5415 5415 5415 5414 5413 5413 5413 5414 5414 5414 5414 5414 5415 5415 5417 5419
5473 5468 5463 5461 5458 5455 5452 5447 5443 5438 5435 5432 5429 5428 5426 5426 5426 5425 5425 5423 5423 5422 5422 5420 5420 5420 5419 5418 5417 5416 5416 5416 5415 5415 5415 5415 5415 5415 5415 5415 5415 5416 5417 5418
5471 5466 5462 5459 5456 5453 5449 5446 5442 5439 5435 5432 5428 5426 5424 5424 5424 5424 5424 5423 5422 5422 5421 5421 5420 5419 5418 5418 5417 5416 5416 5415 5414 5414 5414 5414 5414 5414 5414 5414 5414 5415 5415 5416
5471 5464 5459 5456 5452 5449 5447 5444 5441 5437 5433 5430 5428 5425 5422 5421 5420 5420 5421 5421 5421 5420 5420 5419 5418 5417 5416 5414 5414 5414 5413 5412 5412 5412 5411 5411 5411 5411 5410 5410 5411 5411 5411 5412
5472 5464 5458 5453 5451 5448 5445 5442 5439 5436 5433 5430 5428 5425 5422 5419 5418 5418 5418 5418 5418 5417 5417 5416 5415 5414 5413 5412 5410 5409 5408 5407 5407 5406 5405 5405 5404 5404 5404 5404 5404 5404 5404 5404
5473 5465 5459 5454 5450 5446 5443 5440 5438 5435 5433 5430 5428 5425 5422 5420 5417 5416 5415 5415 5414 5414 5413 5412 5410 5410 5408 5407 5406 5404 5402 5401 5399 5398 5397 5396 5395 5395 5394 5394 5394 5393 5393 5393
5475 5468 5461 5456 5452 5448 5444 5441 5438 5435 5433 5430 5427 5424 5422 5420 5417 5415 5414 5413 5411 5410 5409 5407 5405 5403 5401 5400 5398 5397 5396 5394 5392 5390 5388 5387 5386 5384 5383 5382 5381 5381 5380 5380